• Em Portugal
  • Lista de países
  • Para 7 dias
  • Temperatura da água
  • Mapas de satélite
  • Mapa do tempo
  • Widgets de tempo
  • user-avatar
    Iniciar Sessão

    Previsão horária em Lizdejki

    Hoje, 18 Outubro, Quinta-feira

    Tempo Temperatura Precipitação Vento Pressão Humidade
    00:00 +10°C° 0 mm 2 m/s 752 mmHg 67%
    01:00 +10°C° 0 mm 2 m/s 752 mmHg 69%
    02:00 +9°C° 0 mm 2 m/s 751 mmHg 74%
    03:00 +9°C° 0 mm 2 m/s 751 mmHg 77%
    04:00 +9°C° 0 mm 2 m/s 751 mmHg 79%
    05:00 +9°C° 0 mm 2 m/s 751 mmHg 82%
    06:00 +9°C° 0 mm 2 m/s 750 mmHg 83%
    07:00 +9°C° 0 mm 2 m/s 750 mmHg 84%
    08:00 +9°C° 0 mm 2 m/s 750 mmHg 83%
    09:00 +12°C° 0 mm 2 m/s 750 mmHg 76%
    10:00 +14°C° 0 mm 2 m/s 750 mmHg 69%
    11:00 +16°C° 0 mm 2 m/s 750 mmHg 62%
    12:00 +17°C° 0 mm 2 m/s 750 mmHg 57%
    13:00 +18°C° 0 mm 2 m/s 749 mmHg 53%
    14:00 +19°C° 0 mm 2 m/s 749 mmHg 49%
    15:00 +19°C° 0 mm 1 m/s 749 mmHg 53%
    16:00 +18°C° 0 mm 1 m/s 749 mmHg 58%
    17:00 +15°C° 0 mm 1 m/s 748 mmHg 62%
    18:00 +15°C° 0 mm 1 m/s 748 mmHg 65%
    19:00 +14°C° 0 mm 1 m/s 749 mmHg 67%
    20:00 +13°C° 0 mm 1 m/s 749 mmHg 70%
    21:00 +12°C° 0 mm 1 m/s 749 mmHg 71%
    22:00 +12°C° 0 mm 1 m/s 749 mmHg 72%
    23:00 +12°C° 0 mm 1 m/s 749 mmHg 74%

    Amanhã, 19 Outubro, Sexta-feira

    Tempo Temperatura Precipitação Vento Pressão Humidade
    00:00 +11°C° 0 mm 1 m/s 749 mmHg 76%
    01:00 +11°C° 0 mm 1 m/s 749 mmHg 77%
    02:00 +10°C° 0 mm 1 m/s 749 mmHg 79%
    03:00 +10°C° 0 mm 1 m/s 749 mmHg 82%
    04:00 +10°C° 0 mm 1 m/s 749 mmHg 84%
    05:00 +8°C° 0 mm 2 m/s 749 mmHg 86%
    06:00 +8°C° 0 mm 2 m/s 749 mmHg 88%
    07:00 +8°C° 0 mm 2 m/s 750 mmHg 89%
    08:00 +8°C° 0 mm 2 m/s 750 mmHg 91%
    09:00 +9°C° 0 mm 2 m/s 750 mmHg 86%
    10:00 +12°C° 0 mm 2 m/s 751 mmHg 82%
    11:00 +12°C° 0 mm 3 m/s 751 mmHg 77%
    12:00 +13°C° 0 mm 2 m/s 751 mmHg 77%
    13:00 +13°C° 0 mm 2 m/s 751 mmHg 76%
    14:00 +13°C° 0 mm 2 m/s 751 mmHg 75%
    15:00 +13°C° 0 mm 2 m/s 751 mmHg 77%
    16:00 +12°C° 0 mm 2 m/s 751 mmHg 78%
    17:00 +10°C° 0 mm 2 m/s 751 mmHg 79%
    18:00 +9°C° 0 mm 2 m/s 752 mmHg 82%
    19:00 +10°C° 0 mm 1 m/s 752 mmHg 84%
    20:00 +9°C° 0 mm 1 m/s 752 mmHg 86%
    21:00 +8°C° 0 mm 1 m/s 752 mmHg 87%
    22:00 +8°C° 0 mm 1 m/s 753 mmHg 89%
    23:00 +7°C° 0 mm 1 m/s 753 mmHg 90%

    Depois de amanhã, 20 Outubro, Sábado

    Tempo Temperatura Precipitação Vento Pressão Humidade
    00:00 +7°C° 0 mm 1 m/s 753 mmHg 91%
    01:00 +6°C° 0 mm 1 m/s 753 mmHg 91%
    02:00 +6°C° 0 mm 1 m/s 753 mmHg 91%
    03:00 +6°C° 0 mm 1 m/s 753 mmHg 92%
    04:00 +6°C° 0 mm 1 m/s 753 mmHg 92%
    05:00 +5°C° 0 mm 1 m/s 753 mmHg 93%
    06:00 +6°C° 0 mm 1 m/s 753 mmHg 92%
    07:00 +6°C° 0 mm 1 m/s 753 mmHg 92%
    08:00 +6°C° 0 mm 1 m/s 753 mmHg 92%
    09:00 +6°C° 0 mm 2 m/s 753 mmHg 84%
    10:00 +8°C° 0 mm 2 m/s 753 mmHg 77%
    11:00 +10°C° 0 mm 3 m/s 753 mmHg 70%
    12:00 +10°C° 0 mm 3 m/s 753 mmHg 68%
    13:00 +11°C° 0 mm 4 m/s 753 mmHg 67%
    14:00 +11°C° 0 mm 4 m/s 752 mmHg 65%
    15:00 +11°C° 0.1 mm 4 m/s 752 mmHg 69%
    16:00 +10°C° 0.1 mm 4 m/s 752 mmHg 73%
    17:00 +10°C° 0.1 mm 4 m/s 752 mmHg 77%
    18:00 +8°C° 0.1 mm 4 m/s 752 mmHg 79%
    19:00 +8°C° 0.1 mm 4 m/s 752 mmHg 81%
    20:00 +7°C° 0.1 mm 4 m/s 752 mmHg 82%
    21:00 +7°C° 0.1 mm 4 m/s 752 mmHg 85%
    22:00 +7°C° 0.1 mm 4 m/s 752 mmHg 87%
    23:00 +7°C° 0.1 mm 4 m/s 752 mmHg 89%

    21 Outubro, Domingo

    Tempo Temperatura Precipitação Vento Pressão Humidade
    00:00 +6°C° 0 mm 4 m/s 752 mmHg 91%
    01:00 +7°C° 0 mm 3 m/s 752 mmHg 92%
    02:00 +5°C° 0 mm 3 m/s 752 mmHg 94%
    03:00 +5°C° 0 mm 3 m/s 752 mmHg 94%
    04:00 +4°C° 0 mm 3 m/s 752 mmHg 94%
    05:00 +4°C° 0 mm 3 m/s 752 mmHg 94%
    06:00 +4°C° 0 mm 3 m/s 752 mmHg 91%
    07:00 +5°C° 0 mm 3 m/s 752 mmHg 88%
    08:00 +5°C° 0 mm 4 m/s 752 mmHg 86%
    09:00 +6°C° 0 mm 4 m/s 753 mmHg 80%
    10:00 +7°C° 0 mm 4 m/s 753 mmHg 74%
    11:00 +8°C° 0 mm 5 m/s 753 mmHg 68%
    12:00 +10°C° 0 mm 4 m/s 753 mmHg 66%
    13:00 +10°C° 0 mm 4 m/s 753 mmHg 64%
    14:00 +11°C° 0 mm 4 m/s 753 mmHg 61%
    15:00 +10°C° 0 mm 3 m/s 753 mmHg 65%
    16:00 +9°C° 0 mm 2 m/s 753 mmHg 69%
    17:00 +9°C° 0 mm 1 m/s 753 mmHg 73%
    18:00 +8°C° 0 mm 1 m/s 753 mmHg 77%
    19:00 +8°C° 0 mm 1 m/s 753 mmHg 81%
    20:00 +6°C° 0 mm 0 m/s 753 mmHg 85%
    21:00 +6°C° 0 mm 1 m/s 753 mmHg 86%
    22:00 +6°C° 0 mm 1 m/s 753 mmHg 87%
    23:00 +6°C° 0 mm 1 m/s 753 mmHg 88%

    22 Outubro, Segunda-feira

    Tempo Temperatura Precipitação Vento Pressão Humidade
    00:00 +5°C° 0 mm 2 m/s 753 mmHg 88%
    01:00 +5°C° 0 mm 2 m/s 753 mmHg 89%
    02:00 +3°C° 0 mm 3 m/s 753 mmHg 89%
    03:00 +4°C° 0 mm 3 m/s 752 mmHg 88%
    04:00 +4°C° 0 mm 3 m/s 752 mmHg 87%
    05:00 +4°C° 0 mm 4 m/s 752 mmHg 86%
    06:00 +5°C° 0 mm 4 m/s 751 mmHg 84%
    07:00 +5°C° 0 mm 4 m/s 751 mmHg 82%
    08:00 +6°C° 0 mm 5 m/s 751 mmHg 80%
    09:00 +6°C° 0.2 mm 5 m/s 751 mmHg 79%
    10:00 +7°C° 0.2 mm 5 m/s 750 mmHg 79%
    11:00 +8°C° 0.2 mm 6 m/s 750 mmHg 79%
    12:00 +8°C° 0.9 mm 5 m/s 750 mmHg 82%
    13:00 +8°C° 0.9 mm 5 m/s 750 mmHg 85%
    14:00 +8°C° 0.9 mm 5 m/s 749 mmHg 89%
    15:00 +8°C° 0.8 mm 4 m/s 749 mmHg 89%
    16:00 +7°C° 0.8 mm 4 m/s 749 mmHg 88%
    17:00 +8°C° 0.8 mm 3 m/s 749 mmHg 88%
    18:00 +7°C° 0.1 mm 3 m/s 749 mmHg 86%
    19:00 +7°C° 0.1 mm 3 m/s 750 mmHg 83%
    20:00 +5°C° 0.1 mm 3 m/s 750 mmHg 81%
    21:00 +6°C° 0 mm 2 m/s 749 mmHg 81%
    22:00 +5°C° 0 mm 2 m/s 749 mmHg 81%
    23:00 +5°C° 0 mm 2 m/s 749 mmHg 81%

    23 Outubro, Terça-feira

    Tempo Temperatura Precipitação Vento Pressão Humidade
    00:00 +5°C° 0 mm 2 m/s 749 mmHg 82%
    01:00 +4°C° 0 mm 2 m/s 748 mmHg 83%
    02:00 +4°C° 0 mm 2 m/s 748 mmHg 84%
    03:00 +4°C° 0 mm 2 m/s 748 mmHg 85%
    04:00 +4°C° 0 mm 2 m/s 747 mmHg 87%
    05:00 +4°C° 0 mm 2 m/s 747 mmHg 88%
    06:00 +4°C° 0 mm 2 m/s 746 mmHg 89%
    07:00 +4°C° 0 mm 2 m/s 746 mmHg 89%
    08:00 +4°C° 0 mm 2 m/s 745 mmHg 90%
    09:00 +4°C° 0 mm 3 m/s 745 mmHg 85%
    10:00 +7°C° 0 mm 3 m/s 745 mmHg 81%
    11:00 +8°C° 0 mm 3 m/s 744 mmHg 76%
    12:00 +8°C° 0.2 mm 3 m/s 744 mmHg 74%
    13:00 +8°C° 0.2 mm 3 m/s 743 mmHg 73%
    14:00 +9°C° 0.2 mm 3 m/s 743 mmHg 71%
    15:00 +8°C° 0.1 mm 2 m/s 742 mmHg 74%
    16:00 +7°C° 0.1 mm 2 m/s 742 mmHg 78%
    17:00 +8°C° 0.1 mm 1 m/s 742 mmHg 81%
    18:00 +7°C° 0.1 mm 1 m/s 741 mmHg 83%
    19:00 +7°C° 0.1 mm 1 m/s 741 mmHg 86%
    20:00 +6°C° 0.1 mm 1 m/s 741 mmHg 88%
    21:00 +6°C° 0 mm 1 m/s 741 mmHg 89%
    22:00 +6°C° 0 mm 1 m/s 741 mmHg 90%
    23:00 +5°C° 0 mm 1 m/s 741 mmHg 91%
    Mostrar mais